Flight Track Log - Related Links

Times and Time Zones

All times are in EDT time to prevent confusion due to time zone crossing. See the N755CC flight status page for this flight to view local times or setup timezone preferences in your user account.

Time Position Orientation Groundspeed Altitude Reporting Facility
EDT Latitude Longitude Course Direction KTS MPH feet Rate Location/Type
Mon 09:34:22 AM 41.4500 -74.0833 217° Southwest 91 105 2,700  Level New York TRACON
Mon 09:35:22 AM 41.4500 -74.1167 270° West 108 124 3,400 700 Climbing New York TRACON
Mon 09:36:22 AM 41.4500 -74.1667 270° West 113 130 4,100 300 Climbing New York TRACON
Mon 09:37:22 AM 41.4500 -74.2000 270° West 133 153 4,000 -50 Descending New York TRACON
Mon 09:38:22 AM 41.4333 -74.2500 246° West 130 150 4,000  Level New York TRACON
Mon 09:39:22 AM 41.4167 -74.3000 246° West 132 152 4,000  Level New York TRACON
Mon 09:40:22 AM 41.4167 -74.3500 270° West 133 153 4,000  Level New York TRACON
Mon 09:41:22 AM 41.4000 -74.4000 246° West 136 157 4,000  Level New York TRACON
Mon 09:42:22 AM 41.3833 -74.4333 236° Southwest 135 155 4,000  Level New York TRACON
Mon 09:43:22 AM 41.3833 -74.4833 270° West 131 151 4,000  Level New York TRACON
Mon 09:44:22 AM 41.3667 -74.5333 246° West 134 154 4,000  Level New York TRACON
Mon 09:45:22 AM 41.3500 -74.5833 246° West 134 154 4,000  Level New York TRACON
Mon 09:46:16 AM 41.3333 -74.6167 236° Southwest 133 153 4,000  Level New York TRACON
Mon 09:47:16 AM 41.3333 -74.6667 270° West 128 147 4,000  Level New York TRACON
Mon 09:48:16 AM 41.3167 -74.7167 246° West 128 147 4,000  Level New York TRACON
Mon 09:49:16 AM 41.3000 -74.7500 236° Southwest 115 132 4,000  Level New York TRACON
Mon 09:50:22 AM 41.2667 -74.7833 217° Southwest 118 136 4,000  Level New York TRACON
Mon 09:51:22 AM 41.2500 -74.8000 217° Southwest 115 132 4,000 48 Level New York TRACON
Mon 09:53:00 AM 41.2062 -74.8459 222° Southwest  Level FlightAware Approximate
Mon 10:00:00 AM 41.0292 -75.0595 224° Southwest  Level FlightAware Approximate
Mon 10:01:00 AM 41.0045 -75.0906 224° Southwest  Level FlightAware Approximate
Mon 10:02:00 AM 40.9796 -75.1218 223° Southwest  Level FlightAware Approximate
Mon 10:03:00 AM 40.9548 -75.1529 223° Southwest  Level FlightAware Approximate
Mon 10:04:00 AM 40.9300 -75.1840 223° Southwest  Level FlightAware Approximate
Mon 10:05:00 AM 40.9052 -75.2151 223° Southwest  Level FlightAware Approximate
Mon 10:06:00 AM 40.8804 -75.2461 223° Southwest  Level FlightAware Approximate
Mon 10:07:00 AM 40.8555 -75.2772 223° Southwest  Level FlightAware Approximate
Mon 10:08:00 AM 40.8307 -75.3082 223° Southwest  Level FlightAware Approximate
Mon 10:09:00 AM 40.8058 -75.3391 223° Southwest  Level FlightAware Approximate
Mon 10:10:00 AM 40.7810 -75.3701 223° Southwest  Level FlightAware Approximate
Mon 10:11:00 AM 40.7561 -75.4010 223° Southwest  Level FlightAware Approximate
Mon 10:11:11 AM 40.7500 -75.2167 146° Southeast 118 136 5,000  Level Philadelphia TRACON
Mon 10:12:00 AM 40.7312 -75.4319 223° Southwest  Level FlightAware Approximate
Mon 10:12:29 AM 40.7167 -75.2167 180° South 119 137 5,000  Level Philadelphia TRACON
Mon 10:13:00 AM 40.7050 -75.4394 146° Southeast  Level FlightAware Approximate
Mon 10:13:41 AM 40.6833 -75.2000 159° South 117 135 5,000  Level Philadelphia TRACON
Mon 10:14:00 AM 40.6768 -75.4140 146° Southeast  Level FlightAware Approximate
Mon 10:14:35 AM 40.6500 -75.2000 180° South 113 130 5,000  Level Philadelphia TRACON
Mon 10:15:00 AM 40.6485 -75.3886 146° Southeast  Level FlightAware Approximate
Mon 10:15:35 AM 40.6167 -75.1833 159° South 114 131 5,000  Level Philadelphia TRACON
Mon 10:16:00 AM 40.6203 -75.3632 146° Southeast  Level FlightAware Approximate
Mon 10:16:35 AM 40.5833 -75.1833 180° South 115 132 5,000  Level Philadelphia TRACON
Mon 10:17:35 AM 40.5500 -75.1667 159° South 112 129 5,000  Level Philadelphia TRACON
Mon 10:18:35 AM 40.5333 -75.1667 180° South 110 127 5,000  Level Philadelphia TRACON
Mon 10:19:30 AM 40.5000 -75.1667 180° South 108 124 5,000  Level Philadelphia TRACON
Mon 10:20:35 AM 40.4667 -75.1500 159° South 111 128 5,000  Level Philadelphia TRACON
Mon 10:21:35 AM 40.4333 -75.1500 180° South 113 130 5,000  Level Philadelphia TRACON
Mon 10:22:35 AM 40.4000 -75.1333 159° South 112 129 5,000 -100 Level Philadelphia TRACON
Mon 10:23:35 AM 40.3833 -75.1167 143° Southeast 126 145 4,800 -300 Descending Philadelphia TRACON
Mon 10:24:35 AM 40.3667 -75.0833 123° Southeast 126 145 4,400 -400 Descending Philadelphia TRACON
Mon 10:25:35 AM 40.3500 -75.0333 114° Southeast 124 143 4,000 -198 Descending Philadelphia TRACON
Mon 10:26:36 AM 40.3333 -75.0000 123° Southeast 117 135 4,000  Level Philadelphia TRACON
Mon 10:28:00 AM 40.2956 -74.9547 137° Southeast  Level FlightAware Approximate
Mon 10:35:00 AM 40.2111 -74.6385 95° East  Level FlightAware Approximate
Mon 10:36:00 AM 40.2077 -74.5908 95° East  Level FlightAware Approximate
Mon 10:37:00 AM 40.2043 -74.5431 95° East  Level FlightAware Approximate
Mon 10:38:00 AM 40.2009 -74.4954 95° East  Level FlightAware Approximate
Mon 10:39:00 AM 40.1931 -74.4488 105° East  Level FlightAware Approximate
Mon 10:40:00 AM 40.1838 -74.4025 105° East  Level FlightAware Approximate
Mon 10:41:00 AM 40.1833 -74.3547 90° East  Level FlightAware Approximate
Mon 10:42:00 AM 40.1833 -74.3068 90° East  Level FlightAware Approximate
Mon 10:43:00 AM 40.1833 -74.2589 90° East  Level FlightAware Approximate
Mon 10:44:00 AM 40.1833 -74.2111 90° East  Level FlightAware Approximate
Mon 10:45:00 AM 40.1833 -74.1632 90° East  Level FlightAware Approximate
Mon 10:46:00 AM 40.1833 -74.1167 90° East  Level FlightAware Approximate
Mon 10:47:00 AM 40.1867 -74.1246 90° East  Level Estimated
Mon 10:48:00 AM 40.1833 -74.1167 90° East  Level FlightAware Approximate
Mon 10:49:00 AM 40.1867 -74.1246 90° East  Level Estimated
Mon 10:50:00 AM 40.1833 -74.1167 90° East  Level FlightAware Approximate
Mon 10:51:00 AM 40.1867 -74.1246 90° East  Level Estimated
Mon 10:52:00 AM 40.1833 -74.1167 90° East  Level FlightAware Approximate
Mon 10:53:00 AM 40.1867 -74.1246 90° East  Level Estimated
Mon 10:54:00 AM 40.1833 -74.1167 90° East  Level FlightAware Approximate
Mon 10:55:00 AM 40.1867 -74.1246 90° East  Level Estimated
Mon 10:56:00 AM 40.1833 -74.1167 90° East  Level FlightAware Approximate
Mon 10:57:00 AM 40.1867 -74.1246 90° East  Level Estimated
Mon 10:58:00 AM 40.1833 -74.1167 90° East  Level FlightAware Approximate
Mon 10:59:00 AM 40.1867 -74.1246 90° East  Level Estimated

Login

Don't have an account? Register now (free) for customized features, flight alerts, and more!